Location: Saint-Denis
(20.8800°S, 55.4481°E)
Time: 02:37:58
(UTC+04:00)

ACS3 Solar Sail - Visible Passes

Search period start: 17 January 2026 00:00
Search period end: 27 January 2026 00:00
Orbit: 896 x 981 km, 97.2° (Epoch: 16 January)

Date Brightness Start Highest point End Pass type
(mag) Time Alt. Az. Time Alt. Az. Time Alt. Az.
17 Jan 3.7 02:39:42 18° SSW 02:39:42 18° SSW 02:41:05 10° SSW visible
18 Jan 4.4 01:10:03 11° SE 01:10:03 11° SE 01:10:27 10° SE visible
18 Jan 3.9 02:53:56 14° SSW 02:53:56 14° SSW 02:54:48 10° SSW visible
19 Jan 4.2 01:24:16 14° SSE 01:24:16 14° SSE 01:25:15 10° SSE visible
19 Jan 4.0 03:08:09 11° SW 03:08:09 11° SW 03:08:18 10° SW visible
20 Jan 4.1 01:38:29 16° SSE 01:38:29 16° SSE 01:39:44 10° SSE visible
21 Jan 4.0 01:52:40 17° S 01:52:40 17° S 01:53:58 10° S visible
22 Jan 4.0 02:06:51 17° S 02:06:51 17° S 02:08:03 10° S visible
23 Jan 4.0 02:21:01 15° SSW 02:21:01 15° SSW 02:21:59 10° SSW visible
24 Jan 4.1 02:35:11 13° SSW 02:35:11 13° SSW 02:35:45 10° SSW visible
25 Jan 4.2 02:49:19 10° SSW 02:49:19 10° SSW 02:49:22 10° SSW visible
26 Jan 4.5 01:19:35 11° SSE 01:19:35 11° SSE 01:19:48 10° SSE visible
